Location: Charbonni�res
(45.9952°N, 2.9982°E)
Time: 13:42:40
(UTC+00:00)

Cosmos 2263 Rocket - Pass Details

Date: 29 November 2020
Orbit: 823 x 848 km, 71.0° (Epoch: 26 January)

Event Time Altitude Azimuth Distance (km) Brightness Sun altitude
Exits shadow 06:24:13 - 297° (WNW) 2,564 4.0 -7.5°
Reaches altitude 10° 06:24:49 10° 302° (WNW) 2,476 4.0 -7.4°
Maximum altitude 06:26:58 12° 325° (NW) 2,331 4.0 -7.1°
Drops below altitude 10° 06:29:09 10° 348° (NNW) 2,483 4.3 -6.7°
Sets 06:33:26 0° 18° (NNE) 3,423 5.3 -6.0°
